QPF
0.00 0.00 0.00 0.00 0.00 0.00 0.00 0.00 0.00 0.00 0.00 0.00 0.00 0.00 0.00 0.00 0.00 0.00 0.00 0.00 0.00 0.00 0.00 0.00 0.00 0.00 0.00 0.00 0.00 0.00 0.00 0.00 0.00 0.00 0.00 0.00 0.00 0.00 0.00 0.00 0.00 0.00 0.00 0.00 0.00 0.00 0.00 0.00 0.00
0.00 0.00 0.00 0.00 0.00 0.00 0.00 0.00 0.00 0.00 0.00 0.00 0.00 0.00 0.00 0.00 0.00 0.00 0.00 0.00 0.00 0.00 0.00 0.00 0.00 0.00 0.00 0.00 0.00 0.00 0.00 0.00 0.00 0.00 0.00 0.00 0.00 0.00 0.00 0.00 0.00 0.00 0.00 0.00 0.00 0.00 0.00 0.00 0.00
0.00 0.00 0.00 0.00 0.00 0.00 0.00 0.00 0.00 0.00 0.00 0.00 0.00 0.00 0.00 0.00 0.00 0.00 0.00 0.00 0.00 0.00 0.00 0.00 0.00 0.00 0.00 0.00 0.00 0.00 0.00 0.00 0.00 0.00 0.00 0.00 0.00 0.00 0.00 0.00 0.00 0.00 0.00 0.00 0.00 0.00 0.00 0.00 0.00
0.00 0.00 0.00 0.00 0.00 0.00 0.00 0.00 0.00 0.00 0.00 0.00 0.00 0.00 0.00 0.00 0.00 0.00 0.00 0.00 0.00 0.00 0.00 0.00 0.00 0.00 0.00 0.00 0.00 0.00 0.00 0.00 0.00 0.00 0.00 0.00 0.00 0.00 0.00 0.00 0.00 0.00 0.00 0.00 0.00 0.00 0.00 0.00 0.00
0.00 0.00 0.00 0.00 0.00 0.00 0.00 0.00 0.00 0.00 0.00 0.00 0.00 0.00 0.00 0.00 0.00 0.00 0.00 0.00 0.00 0.00 0.00 0.00 0.00 0.00 0.00 0.00 0.00 0.00 0.00 0.00 0.00 0.00 0.00 0.00 0.00 0.00 0.00 0.00 0.00 0.00 0.00 0.00 0.00 0.00 0.00 0.00 0.00
0.00 0.00 0.00 0.00 0.00 0.00 0.00 0.00 0.00 0.00 0.00 0.00 0.00 0.00 0.00 0.00 0.00 0.00 0.00 0.00 0.00 0.00 0.00 0.00 0.00 0.00 0.00 0.00 0.00 0.00 0.00 0.00 0.00 0.00 0.00 0.00 0.00 0.00 0.00 0.00 0.00 0.00 0.00 0.00 0.00 0.00 0.00 0.00 0.00
0.00 0.00 0.00 0.00 0.00 0.00 0.00 0.00 0.00 0.00 0.00 0.00 0.00 0.00 0.00 0.00 0.00 0.00 0.00 0.00 0.00 0.00 0.00 0.00 0.00 0.00 0.00 0.00 0.00 0.00 0.00 0.00 0.00 0.00 0.00 0.00 0.00 0.00 0.00 0.00 0.00 0.00 0.00 0.00 0.00 0.00 0.00 0.00 0.00
0.00 0.00 0.00 0.00 0.00 0.00 0.00 0.00 0.00 0.00 0.00 0.00 0.00 0.00 0.00 0.00 0.00 0.00 0.00 0.00 0.00 0.00 0.00 0.00 0.00 0.00 0.00 0.00 0.00 0.00 0.00 0.00 0.00 0.00 0.00 0.00 0.00 0.00 0.00 0.00 0.00 0.00 0.00 0.00 0.00 0.00 0.00 0.00 0.00
0.00 0.00 0.00 0.00 0.00 0.00 0.00 0.00 0.00 0.00 0.00 0.00 0.00 0.00 0.00 0.00 0.00 0.00 0.00 0.00 0.00 0.00 0.00 0.00 0.00 0.00 0.00 0.00 0.00 0.00 0.00 0.00 0.00 0.00 0.00 0.00 0.00 0.00 0.00 0.00 0.00 0.00 0.00 0.00 0.00 0.00 0.00 0.00 0.00
0.00 0.00 0.00 0.00 0.00 0.00 0.00 0.00 0.00 0.00 0.00 0.00 0.00 0.00 0.00 0.00 0.00 0.00 0.00 0.00 0.00 0.00 0.00 0.00 0.00 0.00 0.00 0.00 0.00 0.00 0.00 0.00 0.00 0.00 0.00 0.00 0.00 0.00 0.00 0.00 0.00 0.00 0.00 0.00 0.00 0.00 0.00 0.00 0.00
0.00 0.00 0.00 0.00 0.00 0.00 0.00 0.00 0.00 0.00 0.00 0.00 0.00 0.00 0.00 0.00 0.00 0.00 0.00 0.00 0.00 0.00 0.00 0.00 0.00 0.00 0.00 0.00 0.00 0.00 0.00 0.00 0.00 0.00 0.00 0.00 0.00 0.00 0.00 0.00 0.00 0.00 0.00 0.00 0.00 0.00 0.00 0.00 0.00
0.00 0.00 0.00 0.00 0.00 0.00 0.00 0.00 0.00 0.00 0.00 0.00 0.00 0.00 0.00 0.00 0.00 0.00 0.00 0.00 0.00 0.00 0.00 0.00 0.00 0.00 0.00 0.00 0.00 0.00 0.00 0.00 0.00 0.00 0.00 0.00 0.00 0.00 0.00 0.00 0.00 0.00 0.00 0.00 0.00 0.00 0.00 0.00 0.00
0.00 0.00 0.00 0.00 0.00 0.00 0.00 0.00 0.00 0.00 0.00 0.00 0.00 0.00 0.00 0.00 0.00 0.00 0.00 0.00 0.00 0.00 0.00 0.00 0.00 0.00 0.00 0.00 0.00 0.00 0.00 0.00 0.00 0.00 0.00 0.00 0.00 0.00 0.00 0.00 0.00 0.00 0.00 0.00 0.00 0.00 0.00 0.00 0.00
0.00 0.00 0.00 0.00 0.00 0.00 0.00 0.00 0.00 0.00 0.00 0.00 0.00 0.00 0.00 0.00 0.00 0.00 0.00 0.00 0.00 0.00 0.00 0.00 0.00 0.00 0.00 0.00 0.00 0.00 0.00 0.00 0.00 0.00 0.00 0.00 0.00 0.00 0.00 0.00 0.00 0.00 0.00 0.00 0.00 0.00 0.00 0.00 0.00
0.00 0.00 0.00 0.00 0.00 0.00 0.00 0.00 0.00 0.00 0.00 0.00 0.00 0.00 0.00 0.00 0.00 0.00 0.00 0.00 0.00 0.00 0.00 0.00 0.00 0.00 0.00 0.00 0.00 0.00 0.00 0.00 0.00 0.00 0.00 0.00 0.00 0.00 0.00 0.00 0.00 0.00 0.00 0.00 0.00 0.00 0.00 0.00 0.00
0.00 0.00 0.00 0.00 0.00 0.00 0.00 0.00 0.00 0.00 0.00 0.00 0.00 0.00 0.00 0.00 0.00 0.00 0.00 0.00 0.00 0.00 0.00 0.00 0.00 0.00 0.00 0.00 0.00 0.00 0.00 0.00 0.00 0.00 0.00 0.00 0.00 0.00 0.00 0.00 0.00 0.00 0.00 0.00 0.00 0.00 0.00 0.00 0.00
0.00 0.00 0.00 0.00 0.00 0.00 0.00 0.00 0.00 0.00 0.00 0.00 0.00 0.00 0.00 0.00 0.00 0.00 0.00 0.00 0.00 0.00 0.00 0.00 0.00 0.00 0.00 0.00 0.00 0.00 0.00 0.00 0.00 0.00 0.00 0.00 0.00 0.00 0.00 0.00 0.00 0.00 0.00 0.00 0.00 0.00 0.00 0.00 0.00
0.00 0.00 0.00 0.00 0.00 0.00 0.00 0.00 0.00 0.00 0.00 0.00 0.00 0.00 0.00 0.00 0.00 0.00 0.00 0.00 0.00 0.00 0.00 0.00 0.00 0.00 0.00 0.00 0.00 0.00 0.00 0.00 0.00 0.00 0.00 0.00 0.00 0.00 0.00 0.00 0.00 0.00 0.00 0.00 0.00 0.00 0.00 0.00 0.00
0.00 0.00 0.00 0.00 0.00 0.00 0.00 0.00 0.00 0.00 0.00 0.00 0.00 0.00 0.00 0.00 0.00 0.00 0.00 0.00 0.00 0.00 0.00 0.00 0.00 0.00 0.00 0.00 0.00 0.00 0.00 0.00 0.00 0.00 0.00 0.00 0.00 0.00 0.00 0.00 0.00 0.00 0.00 0.00 0.00 0.00 0.00 0.00 0.00
0.00 0.00 0.00 0.00 0.00 0.00 0.00 0.00 0.00 0.00 0.00 0.00 0.00 0.00 0.00 0.00 0.00 0.00 0.00 0.00 0.00 0.00 0.00 0.00 0.00 0.00 0.00 0.00 0.00 0.00 0.00 0.00 0.00 0.00 0.00 0.00 0.00 0.00 0.00 0.00 0.00 0.00 0.00 0.00 0.00 0.00 0.00 0.00 0.00
0.00 0.00 0.00 0.00 0.00 0.00 0.00 0.00 0.00 0.00 0.00 0.00 0.00 0.00 0.00 0.00 0.00 0.00 0.00 0.00 0.00 0.00 0.00 0.00 0.00 0.00 0.00 0.00 0.00 0.00 0.00 0.00 0.00 0.00 0.00 0.00 0.00 0.00 0.00 0.00 0.00 0.00 0.00 0.00 0.00 0.00 0.00 0.00 0.01
0.00 0.00 0.00 0.00 0.00 0.00 0.00 0.00 0.00 0.00 0.00 0.00 0.00 0.00 0.00 0.00 0.00 0.00 0.00 0.00 0.00 0.00 0.00 0.00 0.00 0.00 0.00 0.00 0.00 0.00 0.00 0.00 0.00 0.00 0.00 0.00 0.00 0.00 0.00 0.00 0.00 0.01 0.00 0.00 0.00 0.00 0.00 0.01 0.02
0.00 0.00 0.00 0.00 0.00 0.00 0.00 0.00 0.00 0.00 0.00 0.00 0.00 0.00 0.00 0.00 0.00 0.00 0.00 0.00 0.00 0.00 0.00 0.00 0.00 0.00 0.00 0.00 0.00 0.00 0.00 0.00 0.00 0.00 0.00 0.00 0.00 0.00 0.00 0.00 0.00 0.01 0.00 0.00 0.00 0.00 0.02 0.03 0.08
0.00 0.00 0.00 0.00 0.00 0.00 0.00 0.00 0.00 0.00 0.00 0.00 0.00 0.00 0.00 0.00 0.00 0.00 0.00 0.00 0.00 0.00 0.00 0.00 0.00 0.00 0.00 0.00 0.00 0.00 0.00 0.00 0.00 0.00 0.00 0.00 0.00 0.00 0.00 0.00 0.00 0.01 0.00 0.00 0.01 0.04 0.06 0.09 0.05
0.00 0.00 0.00 0.00 0.00 0.00 0.00 0.00 0.00 0.00 0.00 0.00 0.00 0.00 0.00 0.00 0.00 0.00 0.00 0.00 0.00 0.00 0.00 0.00 0.00 0.00 0.00 0.00 0.00 0.00 0.00 0.00 0.00 0.00 0.00 0.00 0.00 0.00 0.00 0.00 0.00 0.00 0.01 0.02 0.04 0.07 0.09 0.08 0.04
0.00 0.00 0.00 0.00 0.00 0.00 0.00 0.00 0.00 0.00 0.00 0.00 0.00 0.00 0.00 0.00 0.00 0.00 0.00 0.00 0.00 0.00 0.00 0.00 0.00 0.00 0.00 0.00 0.00 0.00 0.00 0.00 0.00 0.00 0.00 0.00 0.00 0.00 0.00 0.00 0.01 0.01 0.04 0.05 0.06 0.06 0.05 0.02 0.01
0.00 0.00 0.00 0.01 0.00 0.00 0.00 0.00 0.00 0.00 0.00 0.00 0.00 0.00 0.00 0.00 0.00 0.00 0.00 0.00 0.00 0.00 0.00 0.00 0.00 0.00 0.00 0.00 0.00 0.00 0.00 0.00 0.00 0.00 0.00 0.00 0.00 0.00 0.01 0.02 0.04 0.05 0.04 0.04 0.04 0.03 0.01 0.00 0.00
0.00 0.00 0.02 0.05 0.03 0.01 0.00 0.00 0.00 0.00 0.00 0.00 0.00 0.00 0.00 0.00 0.00 0.00 0.00 0.00 0.00 0.00 0.00 0.00 0.00 0.00 0.00 0.00 0.00 0.00 0.00 0.01 0.00 0.01 0.01 0.01 0.01 0.01 0.02 0.02 0.02 0.04 0.02 0.02 0.01 0.01 0.00 0.00 0.03
0.01 0.01 0.01 0.05 0.04 0.03 0.02 0.00 0.00 0.00 0.00 0.00 0.00 0.00 0.00 0.00 0.00 0.00 0.00 0.00 0.00 0.00 0.00 0.00 0.00 0.00 0.00 0.00 0.00 0.00 0.01 0.01 0.01 0.01 0.01 0.01 0.02 0.02 0.01 0.01 0.01 0.01 0.00 0.00 0.00 0.01 0.00 0.01 0.03
0.00 0.01 0.01 0.02 0.01 0.01 0.01 0.00 0.00 0.01 0.00 0.00 0.00 0.00 0.00 0.00 0.00 0.00 0.00 0.00 0.00 0.00 0.00 0.00 0.00 0.00 0.01 0.01 0.01 0.00 0.01 0.01 0.01 0.01 0.01 0.01 0.00 0.00 0.00 0.00 0.00 0.00 0.00 0.00 0.00 0.01 0.02 0.03 0.09
MSLP
1009.06 1008.49 1007.58 1006.20 1005.71 1003.38 1000.99 999.27 997.59 995.41 993.96 994.00 994.95 995.18 995.76 996.17 997.36 998.40 998.76 999.38 1001.13 1002.88 1004.02 1005.30 1006.00 1006.74 1007.28 1008.00 1008.39 1008.83 1009.23 1009.59 1009.88 1010.25 1010.45 1010.88 1011.29 1011.67 1011.88 1012.09 1012.40 1012.60 1012.78 1012.87 1013.14 1013.36 1013.43 1013.55 1013.61
1008.45 1007.92 1006.89 1005.79 1004.40 1002.08 999.61 998.00 996.45 994.87 993.95 994.27 995.33 996.18 996.47 996.90 997.18 999.12 999.28 999.86 1001.48 1003.04 1003.93 1004.89 1006.07 1006.61 1007.10 1007.83 1008.32 1008.90 1009.30 1009.63 1010.04 1010.37 1010.60 1010.97 1011.40 1011.65 1011.91 1012.33 1012.57 1012.71 1012.87 1013.08 1013.28 1013.46 1013.69 1013.79 1013.82
1008.72 1007.56 1006.51 1005.06 1003.61 1001.55 998.79 996.29 995.28 994.20 994.48 994.65 995.62 996.39 996.51 996.85 997.74 998.57 999.60 1000.33 1001.67 1003.14 1003.85 1004.85 1005.81 1006.44 1007.13 1007.76 1008.41 1008.98 1009.36 1009.87 1010.21 1010.39 1010.71 1011.02 1011.44 1011.66 1011.91 1012.18 1012.59 1012.72 1012.84 1013.25 1013.51 1013.60 1013.66 1013.82 1013.93
1007.54 1006.63 1006.20 1004.37 1002.39 1000.78 998.84 997.02 995.50 994.12 994.84 995.67 996.07 996.43 996.67 996.98 997.45 998.74 999.60 1000.71 1001.73 1003.00 1003.65 1004.79 1005.73 1006.59 1007.28 1007.74 1008.29 1008.83 1009.27 1009.69 1010.08 1010.35 1010.66 1011.03 1011.34 1011.74 1011.93 1012.22 1012.44 1012.85 1012.86 1013.15 1013.27 1013.47 1013.59 1013.74 1013.75
1007.25 1006.26 1005.06 1003.29 1001.67 1000.37 998.68 997.18 995.64 994.73 994.56 995.34 995.74 996.04 996.68 997.14 997.93 999.03 999.68 1000.55 1001.37 1002.44 1003.50 1004.84 1005.63 1006.28 1006.97 1007.59 1008.20 1008.79 1009.17 1009.50 1009.95 1010.28 1010.63 1011.00 1011.32 1011.66 1011.88 1012.10 1012.34 1012.73 1012.76 1012.98 1013.17 1013.23 1013.40 1013.54 1013.61
1006.45 1005.64 1004.38 1002.90 1001.30 999.69 998.15 997.04 995.67 995.59 995.36 995.13 995.52 995.84 996.29 997.14 998.28 999.26 999.55 1000.08 1000.91 1001.97 1003.18 1004.61 1005.68 1006.38 1006.88 1007.28 1007.94 1008.52 1009.00 1009.49 1009.83 1010.16 1010.43 1010.77 1011.22 1011.56 1011.82 1011.95 1012.19 1012.59 1012.67 1012.82 1012.92 1013.07 1013.26 1013.39 1013.49
1005.90 1005.16 1003.65 1002.33 1000.75 999.30 998.08 996.90 996.11 995.67 995.78 995.38 995.49 995.69 995.97 996.75 997.74 998.59 999.11 999.54 1000.44 1001.66 1003.08 1004.57 1005.46 1006.29 1006.89 1007.42 1007.72 1008.22 1008.77 1009.20 1009.70 1010.12 1010.42 1010.76 1011.00 1011.34 1011.50 1011.78 1012.02 1012.33 1012.49 1012.76 1012.91 1013.05 1013.18 1013.20 1013.17
1005.93 1005.61 1003.86 1002.05 1000.56 999.05 997.73 996.88 996.24 996.15 996.13 995.96 995.55 995.86 997.28 996.13 997.01 998.08 998.44 998.75 999.68 1000.95 1002.49 1004.07 1005.20 1005.97 1006.70 1007.43 1007.88 1008.22 1008.75 1009.08 1009.44 1009.79 1010.21 1010.57 1010.88 1011.16 1011.38 1011.52 1011.80 1012.07 1012.21 1012.53 1012.68 1012.85 1012.90 1013.16 1013.25
1005.66 1004.73 1003.06 1001.84 1000.63 999.39 998.25 997.34 996.44 996.33 996.17 996.05 995.73 996.40 997.81 996.64 996.93 997.84 997.77 998.01 998.77 999.97 1001.28 1002.81 1004.38 1005.56 1006.11 1006.74 1007.40 1008.21 1008.60 1008.92 1009.16 1009.42 1009.65 1010.10 1010.36 1010.74 1011.18 1011.30 1011.42 1011.65 1012.01 1012.36 1012.47 1012.51 1012.94 1013.19 1013.11
1005.07 1003.56 1001.95 1001.52 1000.58 999.63 998.58 997.89 997.13 996.99 996.62 996.21 996.07 997.29 997.64 997.42 998.09 998.09 997.46 997.52 998.18 999.19 1000.35 1001.29 1003.12 1004.47 1005.56 1005.79 1006.41 1007.40 1008.13 1008.51 1008.68 1008.80 1009.10 1009.66 1009.90 1010.08 1010.47 1010.68 1011.10 1011.33 1011.69 1012.04 1012.23 1012.43 1012.64 1012.77 1012.54
1004.54 1002.19 1002.18 1000.86 1000.06 999.77 999.18 998.35 997.72 997.34 996.93 996.39 996.14 996.86 997.69 997.79 998.03 998.01 997.30 997.32 997.92 998.62 999.18 1000.32 1002.22 1003.22 1004.43 1005.13 1005.74 1006.52 1007.08 1007.54 1007.85 1008.21 1008.54 1009.07 1009.48 1009.69 1009.78 1010.01 1010.42 1010.87 1011.30 1011.60 1011.81 1012.03 1012.18 1012.08 1012.14
1003.55 1002.23 1002.10 1001.10 1000.40 999.91 999.25 998.67 998.08 997.94 997.54 996.79 996.21 996.45 996.98 997.53 997.65 997.76 997.61 997.43 998.22 998.45 999.73 1001.14 1001.86 1002.50 1003.40 1004.09 1004.78 1005.59 1006.12 1006.55 1006.96 1007.21 1007.68 1008.30 1009.06 1009.23 1009.17 1009.22 1009.41 1010.07 1010.47 1011.00 1011.09 1011.50 1011.65 1011.84 1011.69
1002.22 1001.71 1001.47 1001.22 1001.07 1000.54 999.82 998.97 998.36 997.72 997.78 997.18 996.52 996.34 996.54 996.95 997.84 998.21 998.20 998.22 998.72 1000.09 1000.50 1000.55 1001.39 1002.09 1002.77 1003.33 1003.92 1004.49 1005.09 1005.53 1005.79 1006.23 1006.74 1007.28 1007.78 1008.16 1008.59 1008.57 1008.63 1009.24 1009.68 1010.21 1010.58 1010.85 1011.18 1011.53 1011.56
1002.70 1001.91 1000.88 1000.38 1000.00 999.97 999.66 998.99 999.03 997.78 997.90 997.62 997.00 996.44 996.81 997.85 998.66 998.24 998.33 998.65 998.87 999.31 999.89 1000.24 1000.98 1001.85 1002.42 1003.01 1003.56 1004.13 1004.24 1004.43 1004.84 1005.23 1005.56 1006.33 1006.85 1007.30 1007.66 1007.95 1008.09 1008.31 1008.79 1009.15 1009.75 1009.97 1010.13 1010.00 1010.81
1003.36 1002.13 1000.98 1000.01 999.63 999.33 999.52 998.90 998.17 998.08 998.11 997.80 997.45 996.93 996.62 997.19 997.69 997.88 998.39 998.92 998.94 999.12 999.63 1000.14 1000.65 1001.81 1002.30 1002.68 1003.17 1003.69 1003.74 1003.91 1004.01 1004.24 1004.48 1005.05 1005.76 1006.43 1006.95 1007.17 1007.57 1007.85 1007.98 1008.43 1009.06 1009.37 1009.41 1009.73 1009.61
1003.66 1002.17 1000.48 999.10 1000.25 998.97 999.71 997.47 997.68 998.03 997.85 997.85 997.93 997.42 996.84 996.69 996.86 997.14 997.85 998.53 998.76 999.24 999.66 1000.14 1000.28 1001.09 1001.79 1002.43 1002.87 1003.20 1003.34 1003.41 1003.46 1003.52 1003.55 1003.89 1004.69 1005.28 1006.08 1006.47 1006.75 1007.23 1007.64 1007.96 1008.18 1008.73 1008.96 1008.94 1009.09
1003.08 1001.55 1000.71 999.57 999.18 999.10 999.26 997.43 997.10 997.32 997.36 997.49 997.82 997.61 997.13 996.58 996.44 996.66 997.14 997.58 998.08 998.53 998.99 999.60 999.96 1000.70 1001.45 1002.04 1002.58 1002.76 1002.85 1002.90 1002.69 1002.66 1002.78 1003.04 1003.74 1004.38 1005.15 1005.66 1006.12 1006.64 1007.05 1007.39 1007.66 1007.97 1008.45 1008.98 1009.14
1002.22 1001.42 1000.52 999.49 999.03 998.61 997.77 997.45 996.82 996.67 996.70 996.74 997.04 997.37 997.08 996.47 996.29 996.21 996.41 996.81 997.26 997.78 998.61 999.33 999.76 1000.38 1000.93 1001.56 1002.13 1002.10 1002.14 1002.13 1002.06 1002.14 1002.23 1002.32 1002.84 1003.58 1004.53 1005.09 1005.59 1006.02 1006.54 1006.83 1007.11 1007.48 1007.95 1008.43 1008.75
1002.34 1001.75 1000.68 999.53 999.07 998.67 997.40 996.83 995.44 995.88 996.03 995.85 996.10 996.34 996.52 996.23 996.06 995.94 995.85 996.37 996.67 997.29 998.03 998.84 999.55 1000.19 1000.94 1001.43 1001.64 1001.64 1001.53 1001.54 1001.40 1001.39 1001.55 1001.85 1002.22 1002.98 1003.93 1004.67 1005.10 1005.58 1005.90 1006.27 1006.76 1007.25 1007.81 1008.03 1008.21
1002.67 1002.08 1001.15 1000.61 1000.19 999.81 998.03 996.84 995.33 994.82 994.54 994.95 995.11 995.36 995.46 995.56 995.27 995.16 995.40 996.00 996.42 997.05 997.68 998.38 999.07 999.78 1000.45 1000.87 1001.04 1001.09 1000.85 1000.45 1000.20 1000.34 1000.71 1001.29 1001.81 1002.57 1003.38 1004.12 1004.77 1005.14 1005.56 1005.96 1006.34 1006.82 1007.37 1007.86 1008.15
1002.55 1002.24 1001.74 1001.28 1000.83 1000.30 998.67 997.03 995.88 994.74 994.30 994.23 994.23 994.02 994.26 994.57 994.82 994.87 995.02 995.29 995.78 996.33 997.05 997.64 998.26 998.97 999.44 999.99 1000.24 1000.33 1000.34 1000.02 999.79 999.63 1000.27 1000.75 1001.44 1002.27 1003.03 1003.72 1004.34 1004.69 1005.18 1005.61 1006.12 1006.50 1007.00 1007.62 1008.02
1002.32 1002.39 1001.81 1001.61 1001.32 1000.22 999.84 997.39 996.37 995.19 994.36 994.27 994.07 993.56 993.64 993.73 994.02 994.37 994.54 994.75 995.11 995.58 996.22 996.87 997.56 998.16 998.57 999.07 999.47 999.64 999.67 999.57 999.39 999.32 999.84 1000.62 1001.33 1002.08 1002.78 1003.45 1004.02 1004.33 1004.68 1005.15 1005.71 1006.30 1006.89 1007.28 1007.80
1002.35 1002.27 1002.05 1001.83 1001.43 1000.83 999.79 998.82 996.40 995.65 994.16 993.50 993.48 993.28 993.18 993.44 993.71 993.74 994.01 994.19 994.53 994.98 995.54 996.02 996.57 997.03 997.44 997.98 998.61 999.07 999.09 998.94 999.10 999.22 999.61 1000.47 1001.33 1002.14 1002.80 1003.32 1003.73 1004.19 1004.41 1004.96 1005.34 1006.17 1006.72 1007.02 1007.46
1003.28 1002.57 1002.34 1002.03 1001.70 1000.44 999.38 998.76 996.43 995.58 994.55 993.30 992.52 992.21 992.18 992.43 992.67 992.92 993.22 993.59 993.96 994.26 994.42 994.95 995.46 995.85 996.49 997.10 997.80 998.34 998.58 998.77 998.86 999.19 1000.01 1000.75 1001.48 1002.29 1002.87 1003.30 1003.67 1004.08 1004.43 1004.76 1005.34 1005.84 1006.38 1006.78 1007.24
1004.11 1002.91 1002.46 1001.95 1001.11 999.74 999.17 998.17 996.17 995.75 994.58 993.46 992.53 991.88 991.44 991.12 991.38 991.70 992.16 992.52 992.85 993.10 993.44 993.98 994.54 995.27 995.84 996.55 997.22 997.75 998.30 998.51 998.69 998.95 999.86 1000.86 1001.68 1002.51 1002.98 1003.36 1003.59 1004.09 1004.29 1004.55 1005.05 1005.64 1006.24 1006.72 1007.12
1004.74 1004.22 1003.56 1002.43 1001.60 1000.16 999.03 997.52 996.18 995.63 994.89 993.72 992.67 991.84 991.44 990.68 990.32 990.64 991.09 991.58 991.89 992.19 992.60 993.24 994.01 994.79 995.36 996.11 996.64 997.21 997.84 998.05 998.36 999.06 1000.00 1000.94 1001.74 1002.44 1002.92 1003.26 1003.48 1003.81 1004.12 1004.61 1005.07 1005.76 1006.18 1006.54 1006.81
1003.62 1002.71 1002.97 1003.25 1002.88 1001.89 1000.56 998.19 997.18 996.08 995.02 994.06 992.53 991.77 991.14 990.74 990.37 990.43 990.90 991.05 991.25 991.51 991.92 992.68 993.65 994.33 994.91 995.51 996.23 996.89 997.45 997.67 998.45 999.32 1000.18 1000.92 1001.57 1002.07 1002.62 1002.91 1003.22 1003.56 1004.12 1004.62 1005.13 1005.46 1005.90 1006.16 1006.51
1002.86 1003.04 1003.51 1003.88 1004.09 1002.29 1000.23 998.45 996.73 995.98 995.04 994.10 992.70 991.48 990.84 990.30 990.49 990.59 990.48 990.52 990.57 991.04 991.72 992.55 993.40 994.09 994.84 995.43 996.10 996.75 997.15 997.58 998.39 999.36 1000.06 1000.64 1001.12 1001.57 1002.23 1002.66 1003.14 1003.59 1003.96 1004.47 1004.94 1005.32 1005.65 1006.03 1006.46
1002.56 1003.90 1004.55 1005.16 1005.06 1003.59 1001.20 998.57 996.79 998.25 997.74 995.81 992.91 991.16 990.47 990.53 990.45 990.47 989.66 989.81 990.28 991.29 992.10 992.94 993.75 994.46 995.14 995.65 996.20 996.87 997.43 997.92 998.47 999.32 999.82 1000.30 1000.99 1001.54 1002.20 1002.64 1003.15 1003.52 1003.93 1004.29 1004.85 1005.14 1005.47 1005.88 1006.50
1002.43 1003.06 1004.36 1004.78 1003.57 1002.81 1002.13 998.69 999.09 1000.17 1000.00 998.26 994.27 993.72 991.26 990.34 990.43 990.72 989.38 989.93 990.49 991.31 992.48 993.33 994.03 994.69 995.53 996.13 996.80 997.46 997.93 998.45 999.03 999.65 1000.12 1000.58 1001.15 1001.63 1002.07 1002.48 1002.92 1003.42 1003.90 1004.38 1004.77 1005.18 1005.25 1005.79 1006.22
Thickness
5771 5780 5790 5791 5759 5778 5783 5806 5842 5853 5878 5900 5889 5877 5870 5874 5840 5819 5888 5892 5884 5869 5861 5848 5841 5835 5829 5822 5817 5813 5809 5804 5800 5795 5794 5788 5783 5778 5775 5773 5768 5764 5760 5757 5752 5748 5747 5745 5743
5771 5777 5782 5773 5754 5759 5791 5831 5835 5863 5889 5891 5880 5871 5866 5852 5875 5863 5873 5887 5881 5867 5859 5849 5837 5833 5829 5820 5815 5809 5806 5802 5796 5791 5788 5784 5779 5775 5772 5766 5763 5759 5757 5752 5748 5744 5740 5738 5737
5765 5774 5758 5756 5755 5760 5793 5846 5860 5882 5882 5875 5863 5876 5870 5861 5873 5874 5882 5886 5876 5863 5857 5846 5837 5831 5825 5819 5812 5805 5802 5796 5792 5789 5785 5781 5776 5772 5770 5765 5758 5754 5752 5746 5741 5738 5736 5734 5732
5763 5765 5760 5744 5755 5787 5809 5834 5856 5873 5867 5869 5866 5849 5875 5883 5871 5883 5886 5881 5871 5861 5856 5845 5836 5827 5820 5816 5810 5805 5800 5795 5791 5788 5783 5778 5774 5767 5764 5760 5756 5749 5748 5743 5740 5736 5734 5731 5729
5759 5754 5737 5747 5766 5792 5815 5835 5854 5858 5860 5857 5864 5847 5854 5879 5880 5882 5880 5877 5869 5862 5855 5842 5834 5828 5820 5814 5808 5802 5798 5795 5790 5785 5781 5775 5771 5765 5761 5758 5753 5747 5746 5741 5737 5735 5731 5728 5728
5737 5748 5729 5733 5762 5796 5819 5835 5850 5844 5852 5861 5854 5854 5855 5882 5868 5872 5878 5874 5872 5860 5854 5840 5830 5824 5819 5815 5809 5803 5798 5792 5787 5782 5778 5774 5768 5762 5758 5756 5753 5746 5744 5739 5736 5734 5730 5727 5725
5733 5733 5734 5750 5764 5784 5807 5832 5829 5837 5838 5847 5867 5844 5865 5862 5868 5873 5874 5874 5869 5860 5849 5836 5828 5821 5816 5811 5809 5803 5797 5792 5786 5780 5777 5772 5767 5761 5758 5755 5752 5747 5743 5738 5735 5733 5729 5727 5725
5732 5724 5725 5749 5758 5771 5811 5827 5839 5831 5825 5859 5871 5834 5818 5856 5874 5866 5872 5869 5864 5860 5849 5835 5826 5819 5814 5807 5804 5800 5793 5789 5785 5782 5777 5771 5766 5761 5758 5755 5751 5746 5743 5737 5734 5731 5728 5723 5721
5738 5713 5718 5739 5753 5774 5805 5803 5830 5840 5832 5845 5859 5846 5838 5860 5868 5854 5858 5862 5857 5851 5851 5844 5829 5819 5814 5809 5804 5796 5791 5787 5784 5781 5778 5773 5768 5763 5757 5754 5750 5746 5741 5736 5733 5730 5724 5720 5718
5715 5715 5732 5760 5768 5770 5788 5797 5809 5809 5814 5824 5838 5837 5843 5846 5847 5842 5846 5850 5851 5843 5843 5847 5837 5823 5815 5814 5810 5799 5792 5787 5784 5781 5778 5773 5769 5766 5760 5756 5750 5745 5740 5734 5730 5726 5723 5720 5719
5712 5717 5742 5759 5774 5778 5776 5786 5800 5791 5790 5820 5828 5828 5835 5836 5839 5841 5847 5852 5853 5854 5846 5836 5834 5831 5821 5814 5813 5805 5797 5792 5787 5783 5778 5773 5768 5765 5762 5758 5752 5745 5738 5734 5729 5725 5722 5721 5717
5700 5731 5735 5751 5763 5760 5761 5782 5778 5786 5795 5824 5837 5840 5834 5829 5834 5839 5845 5851 5848 5839 5835 5823 5827 5830 5824 5822 5815 5809 5803 5798 5792 5788 5782 5776 5769 5766 5762 5760 5756 5748 5741 5734 5731 5725 5722 5718 5716
5712 5728 5734 5741 5739 5742 5757 5759 5769 5776 5798 5815 5824 5831 5831 5829 5826 5830 5837 5841 5840 5822 5827 5831 5826 5830 5824 5816 5814 5809 5805 5801 5799 5794 5787 5780 5775 5769 5763 5760 5757 5750 5743 5736 5731 5727 5721 5715 5713
5710 5714 5724 5736 5739 5739 5739 5749 5757 5776 5796 5797 5805 5815 5817 5803 5802 5816 5821 5825 5831 5831 5829 5831 5824 5818 5826 5816 5808 5804 5803 5801 5800 5796 5790 5783 5777 5772 5766 5761 5757 5752 5747 5740 5732 5729 5725 5722 5714
5693 5689 5709 5723 5733 5733 5740 5724 5737 5772 5782 5780 5787 5800 5809 5807 5804 5806 5811 5814 5824 5829 5829 5826 5825 5813 5816 5815 5809 5802 5804 5801 5797 5795 5790 5786 5780 5773 5766 5762 5755 5751 5745 5739 5734 5729 5727 5721 5719
5670 5683 5685 5729 5715 5735 5719 5708 5748 5766 5766 5765 5771 5782 5797 5802 5806 5809 5809 5814 5816 5821 5818 5818 5822 5815 5810 5808 5806 5804 5801 5798 5799 5798 5793 5787 5780 5775 5766 5761 5756 5750 5742 5737 5734 5728 5722 5717 5713
5665 5660 5673 5697 5720 5715 5704 5707 5744 5760 5755 5751 5758 5767 5778 5792 5801 5808 5809 5813 5813 5813 5813 5809 5818 5812 5804 5802 5801 5801 5801 5798 5801 5799 5796 5789 5781 5775 5768 5761 5755 5748 5741 5735 5732 5727 5721 5713 5710
5651 5657 5671 5677 5707 5706 5704 5702 5733 5748 5747 5746 5750 5753 5764 5777 5788 5803 5804 5813 5813 5808 5804 5806 5811 5808 5805 5796 5793 5798 5798 5798 5800 5796 5792 5788 5782 5776 5767 5759 5752 5746 5739 5734 5730 5726 5720 5713 5707
5648 5647 5655 5681 5696 5687 5698 5703 5729 5736 5737 5740 5745 5749 5751 5763 5783 5794 5799 5805 5805 5799 5793 5802 5801 5802 5797 5789 5785 5786 5788 5792 5793 5794 5793 5788 5780 5774 5764 5756 5749 5744 5737 5732 5727 5721 5714 5709 5707
5629 5627 5639 5654 5667 5660 5675 5679 5715 5732 5736 5738 5740 5743 5752 5762 5775 5787 5792 5796 5793 5789 5790 5798 5796 5795 5793 5788 5787 5788 5791 5795 5796 5796 5792 5786 5777 5771 5760 5753 5745 5740 5733 5728 5724 5719 5710 5705 5703
5615 5614 5621 5622 5637 5642 5661 5662 5687 5720 5730 5733 5737 5749 5755 5757 5760 5772 5779 5787 5789 5785 5789 5793 5791 5790 5790 5788 5787 5787 5787 5790 5789 5788 5785 5780 5772 5764 5757 5750 5742 5737 5731 5725 5719 5715 5708 5698 5697
5593 5614 5614 5610 5608 5606 5642 5626 5664 5697 5708 5716 5725 5738 5745 5754 5761 5767 5772 5779 5786 5790 5791 5791 5787 5784 5787 5787 5781 5780 5780 5778 5783 5781 5781 5773 5766 5758 5752 5745 5738 5734 5730 5724 5718 5712 5704 5698 5690
5593 5607 5601 5601 5597 5600 5615 5608 5650 5684 5690 5707 5715 5727 5736 5744 5752 5760 5767 5777 5782 5785 5784 5787 5786 5784 5787 5786 5781 5777 5777 5781 5780 5777 5773 5766 5758 5751 5745 5740 5735 5730 5727 5720 5716 5707 5700 5696 5689
5588 5588 5590 5593 5589 5580 5610 5606 5630 5657 5674 5697 5714 5723 5732 5739 5747 5756 5767 5773 5773 5781 5786 5787 5786 5788 5786 5783 5780 5775 5773 5772 5770 5768 5760 5754 5748 5742 5737 5733 5729 5725 5720 5716 5710 5704 5698 5692 5686
5563 5577 5565 5567 5578 5579 5609 5605 5623 5650 5669 5684 5700 5715 5727 5742 5749 5756 5759 5766 5773 5779 5785 5785 5785 5782 5783 5779 5776 5773 5768 5767 5765 5764 5755 5744 5738 5731 5728 5726 5723 5718 5716 5713 5707 5699 5693 5687 5680
5546 5551 5548 5546 5562 5580 5605 5590 5611 5642 5655 5673 5692 5708 5718 5731 5749 5754 5762 5768 5772 5777 5781 5782 5780 5776 5777 5775 5772 5770 5766 5765 5764 5758 5748 5739 5732 5727 5724 5720 5718 5715 5712 5707 5701 5693 5687 5682 5675
5555 5565 5576 5554 5561 5553 5570 5595 5612 5630 5639 5655 5683 5698 5706 5719 5736 5749 5759 5763 5769 5775 5778 5777 5773 5773 5773 5773 5768 5765 5762 5761 5755 5748 5740 5734 5729 5725 5719 5718 5714 5711 5706 5700 5693 5688 5682 5679 5674
5568 5575 5550 5551 5533 5543 5569 5581 5598 5625 5637 5652 5674 5692 5703 5715 5727 5740 5752 5759 5768 5773 5773 5772 5770 5768 5766 5766 5763 5760 5758 5756 5748 5742 5735 5730 5727 5723 5717 5714 5709 5705 5701 5695 5688 5685 5680 5675 5670
5567 5543 5539 5536 5523 5522 5540 5575 5619 5594 5606 5635 5677 5700 5699 5707 5721 5735 5753 5760 5763 5765 5763 5761 5759 5757 5755 5756 5755 5752 5749 5746 5742 5735 5731 5728 5723 5718 5712 5708 5702 5699 5695 5692 5685 5681 5676 5671 5664
5567 5556 5540 5531 5542 5550 5548 5573 5592 5570 5575 5593 5659 5665 5690 5709 5718 5725 5748 5754 5757 5755 5752 5749 5750 5748 5747 5746 5743 5740 5739 5735 5730 5726 5724 5721 5716 5713 5708 5703 5699 5694 5689 5685 5680 5675 5674 5667 5661